Location: Cran-Gévrier
(45.9039°N, 6.1012°E)
Time: 11:51:28
(UTC+00:00)

Cosmos 2322 Rocket - Pass Details

Date: 09 February 2023
Orbit: 832 x 851 km, 71.0° (Epoch: 20 March)

Event Time Altitude Azimuth Distance (km) Brightness Sun altitude
Rises 18:29:02 0° 251° (WSW) 3,371 6.8 -17.2°
Reaches altitude 10° 18:32:07 10° 268° (W) 2,442 5.9 -17.7°
Maximum altitude 18:36:12 20° 315° (NW) 1,827 4.4 -18.4°
Drops below altitude 10° 18:40:20 10° 2° (N) 2,457 4.6 -19.1°
Sets 18:43:27 0° 19° (NNE) 3,398 5.1 -19.7°
